Theta_e
321 321 322 322 321 320 319 319 318 317 317 310 305 306 310 311 313 316 318 320 322 322 322 323 325 325 326 327 328 329 330 331 333
321 320 321 321 320 320 318 317 317 315 309 306 305 306 310 313 315 316 319 320 322 322 322 323 324 325 326 327 327 327 328 328 329
320 320 320 320 319 318 316 316 315 313 306 306 306 306 312 314 316 318 320 321 322 322 322 322 323 324 326 326 326 325 326 327 330
319 319 318 318 317 316 312 310 308 306 308 309 306 308 313 316 318 319 321 322 322 321 322 323 324 324 323 323 324 324 324 325 328
313 314 314 315 313 309 306 306 306 308 309 309 307 310 313 315 319 323 324 324 323 322 323 324 322 323 324 324 324 324 325 324 325
316 311 309 308 307 306 305 305 307 311 310 309 311 312 313 317 320 322 325 327 326 326 324 321 321 322 322 324 324 323 323 322 322
314 309 308 307 306 305 305 305 310 313 314 313 312 312 313 317 320 321 321 321 321 321 321 320 324 327 326 326 325 324 324 322 322
314 313 313 311 309 309 309 308 311 313 314 314 313 313 314 317 318 318 320 323 324 323 322 321 320 322 322 323 324 324 322 322 322
313 313 313 311 310 309 309 308 311 313 314 313 314 314 315 317 316 314 318 320 321 321 320 321 322 321 326 324 323 324 324 322 321
313 313 312 311 310 309 309 308 310 313 314 314 314 314 313 314 314 311 312 317 319 320 319 320 320 323 325 324 323 323 322 323 323
313 313 312 311 309 308 309 309 308 312 314 314 314 313 312 312 312 312 309 307 310 316 317 317 318 320 324 324 323 322 322 322 322
313 312 312 310 308 308 308 308 308 311 313 314 314 313 312 311 310 310 308 307 305 302 311 316 316 317 321 323 322 322 322 321 320
313 312 311 310 309 308 309 309 308 310 313 314 314 313 312 311 309 309 308 308 308 308 303 308 314 315 317 319 320 320 319 319 318
312 312 311 310 309 309 308 309 309 309 312 314 314 313 312 311 310 309 308 307 307 308 307 306 306 311 313 314 316 316 316 316 316
312 311 310 310 309 308 308 308 309 309 309 312 314 314 313 312 311 310 307 307 306 307 308 308 309 307 306 311 313 314 314 314 313
311 311 310 309 309 308 308 308 309 308 310 313 314 314 313 310 311 312 310 306 306 306 305 307 309 310 306 304 308 311 312 312 313
311 310 310 309 308 307 307 308 308 307 308 309 312 315 313 309 310 311 308 305 305 305 305 305 309 309 306 305 301 302 306 308 309
310 310 309 309 308 308 307 307 308 307 307 307 309 312 313 309 309 308 307 304 305 305 304 305 308 308 306 303 301 300 301 306 307
310 310 309 309 308 308 307 306 307 307 307 306 306 306 308 311 310 307 307 304 304 304 304 306 307 307 305 304 301 300 300 303 305
309 309 309 309 308 307 305 305 306 306 306 306 306 306 306 305 307 309 306 305 305 304 304 305 306 306 305 303 301 300 299 300 303
Wind_Speed
11 11 11 10 11 11 11 12 12 13 13 12 12 13 15 13 11 10 11 11 11 12 13 12 12 11 11 11 11 11 11 9 9
12 11 10 10 10 10 10 11 11 12 11 11 12 12 15 12 11 11 11 11 11 11 11 11 11 11 11 11 12 12 11 11 8
11 11 10 10 9 9 10 10 10 11 11 11 11 13 14 10 11 11 12 12 11 11 11 11 11 11 11 11 11 12 12 11 11
11 11 10 9 9 8 9 8 9 10 11 11 13 15 15 11 11 12 12 12 11 12 12 12 11 11 11 10 11 11 11 11 11
11 10 8 8 8 8 8 8 9 11 11 12 14 15 14 11 11 12 9 11 13 13 13 12 11 11 11 10 10 10 10 11 11
8 6 7 6 7 7 7 8 10 12 14 14 15 13 10 11 12 15 14 14 15 15 14 13 11 9 9 9 9 9 7 7 9
7 7 7 6 8 9 9 9 11 10 6 7 11 9 10 11 12 13 17 12 12 11 13 10 13 13 12 12 12 10 10 8 8
5 4 4 4 8 4 6 6 5 8 8 8 9 9 9 10 10 12 15 15 15 15 13 12 11 14 13 11 11 11 10 10 10
6 4 5 4 4 4 5 5 6 8 9 10 10 10 9 9 10 9 11 15 13 13 12 15 14 13 14 9 12 12 12 11 10
6 5 5 5 4 4 6 5 5 7 9 10 10 10 10 9 9 10 9 10 14 14 13 13 12 14 18 14 14 13 13 13 12
7 6 5 5 5 5 5 5 4 6 9 10 10 9 10 10 9 8 10 10 8 11 12 12 12 13 17 17 14 12 12 12 13
7 7 5 5 6 7 5 5 4 6 9 10 9 9 9 9 9 8 8 9 12 10 10 11 11 11 13 16 18 20 19 18 17
7 7 6 6 6 6 7 5 5 5 7 9 9 8 8 8 9 9 8 8 8 10 11 10 11 12 11 13 14 15 16 16 15
8 8 7 6 6 6 6 6 5 5 6 8 9 8 7 7 7 8 8 10 8 8 10 12 10 12 14 13 12 12 13 13 14
11 9 8 7 7 7 6 7 7 5 5 7 8 7 6 6 5 5 5 8 7 7 8 7 9 11 12 15 15 14 14 14 14
12 10 9 8 8 8 8 8 9 7 5 6 6 5 4 4 4 4 4 7 6 7 7 7 6 8 11 13 14 15 15 15 15
12 12 10 9 9 8 8 7 9 7 3 3 4 4 4 4 4 4 4 6 6 7 5 5 6 6 7 11 12 14 16 16 16
13 12 11 10 9 9 8 7 6 7 5 3 4 2 2 7 4 4 4 5 5 5 6 6 6 6 7 5 10 13 15 17 17
13 13 12 11 10 9 9 7 7 7 8 5 5 5 4 1 4 6 3 3 5 6 5 5 5 5 4 7 9 14 17 17 17
14 13 13 12 10 10 10 9 7 7 7 5 4 4 4 5 3 3 5 3 3 4 4 4 3 4 3 3 11 17 19 18 17
Wind_Direction
94 87 81 73 65 64 61 60 59 57 54 51 54 62 69 61 57 57 46 41 28 25 28 32 34 36 36 37 31 25 23 23 19
98 90 84 75 71 67 63 61 60 58 56 53 55 65 69 62 60 56 45 32 28 29 35 39 40 39 39 37 34 33 26 21 14
97 92 85 77 73 67 66 65 63 62 58 54 56 71 74 62 59 55 42 40 38 41 45 45 45 44 41 37 35 35 33 33 33
99 94 86 80 72 68 67 71 67 65 63 61 67 78 78 65 59 55 49 46 48 52 53 54 53 46 40 37 35 32 33 33 35
92 73 89 82 78 72 70 72 70 68 64 65 77 75 65 67 63 54 48 57 62 61 62 59 51 50 43 38 38 31 32 32 29
105 116 89 79 75 72 71 75 79 71 61 67 72 69 71 71 69 50 53 68 64 64 65 59 45 45 49 37 32 25 28 29 29
130 102 82 74 74 67 69 75 70 70 67 50 61 75 78 75 76 58 60 55 53 54 56 51 35 51 55 50 44 38 38 40 42
123 92 71 60 68 68 59 49 74 82 80 75 77 78 80 81 76 73 74 57 63 63 59 48 43 38 34 31 36 34 40 50 52
145 133 118 95 81 76 81 73 81 85 83 84 81 80 80 81 80 76 85 62 58 55 54 45 50 41 22 51 45 47 55 63 58
146 135 126 112 92 84 88 88 94 94 90 88 82 78 78 80 82 71 74 80 62 55 56 47 48 36 40 56 59 55 53 55 56
148 140 130 119 111 95 94 95 97 105 100 97 88 83 80 79 79 78 56 55 61 61 58 52 45 37 39 52 57 55 55 58 60
154 144 138 126 117 108 97 84 97 114 110 104 98 88 82 79 75 72 69 37 39 48 57 60 54 43 35 45 54 55 56 53 48
158 147 142 135 122 115 113 92 104 121 119 114 106 97 88 79 76 72 67 61 48 24 42 60 61 54 46 38 43 47 45 41 36
159 154 148 138 126 118 113 100 113 123 119 117 112 106 97 85 81 74 67 50 50 47 30 44 55 60 55 48 41 35 36 34 31
158 153 154 146 133 125 120 106 113 119 132 124 118 114 107 95 92 82 74 41 62 51 55 46 32 47 52 53 50 44 39 34 29
161 154 157 157 145 144 135 122 119 115 130 135 127 121 119 101 113 89 66 42 59 57 52 54 64 37 38 54 51 45 38 29 22
165 160 163 159 145 142 149 142 126 109 134 254 190 162 154 138 123 104 84 47 71 37 54 59 70 75 45 40 43 43 32 23 15
168 165 165 160 154 147 139 146 151 133 93 92 311 197 103 146 146 127 118 59 65 46 46 77 81 80 87 65 48 34 24 16 8
169 167 164 159 157 145 141 129 129 137 132 97 59 67 60 333 152 146 136 73 77 50 61 82 81 85 59 39 26 12 6 4 1
170 166 163 159 155 151 144 126 126 120 123 119 126 87 76 55 20 122 119 134 77 41 59 74 82 87 99 342 358 354 351 351 354